Detroit, MI

5:37 AM EDT on June 25, 2017 (GMT -0400)
Detroit City

Weather History for KDET - February, 2012

Change the Weather History Date:

Sunday, February 12, 2012

  Actual Average Record
Temperature  
Mean Temperature 24 °F -  
Max Temperature 30 °F 31 °F 60 °F (1999)
Min Temperature 17 °F 17 °F -2 °F (1981)
Degree Days  
Heating Degree Days 42    
Moisture  
Dew Point 12 °F    
Average Humidity 63    
Maximum Humidity 71    
Minimum Humidity 49    
Precipitation  
Precipitation 0.00 in - - ()
Sea Level Pressure  
Sea Level Pressure 30.20 in    
Wind  
Wind Speed 11 mph (WNW)    
Max Wind Speed 16 mph    
Max Gust Speed 22 mph    
Visibility 10 miles    
Events      
Averages and records for this station are not official NWS values.
T = Trace of Precipitation, MM = Missing Value Source: NWS Daily Summary

Daily Weather History Graph

Daily Weather History Graph

Search for Another Location

Airport or City:

Trip Planner

Search our weather history database for the weather conditions in past years. The results will help you decide how hot, cold, wet, or windy it might be!

Date:

Astronomy

Feb. 12, 2012 Rise Set
Actual Time 7:33 AM EST 5:59 PM EST
Civil Twilight 7:04 AM EST 6:28 PM EST
Nautical Twilight 6:31 AM EST 7:01 PM EST
Astronomical Twilight 5:58 AM EST 7:34 PM EST
Moon No Moon Rise 9:42 AM EST (2/12)
Length of Visible Light 11h 24m
Length of Day
10h 26m
Waning Gibbous, 72% of the Moon is Illuminated
Feb 12
Waning Gibbous
Feb 14
Last Quarter
Feb 21
New
Feb 29
First Quarter
Mar 8
Full

Hourly Weather History & Observations

Time (EST) Temp. Windchill Dew Point Humidity Pressure Visibility Wind Dir Wind Speed Gust Speed Precip Events Conditions
12:53 AM 17.1 °F 2.0 °F 8.1 °F 68% 30.19 in 10.0 mi NW 16.1 mph 20.7 mph N/A   Overcast
1:34 AM 17.6 °F 5.7 °F 8.6 °F 68% 30.14 in 10.0 mi West 10.4 mph - N/A   Overcast
1:53 AM 17.1 °F 7.6 °F 8.1 °F 68% 30.17 in 10.0 mi West 6.9 mph - N/A   Overcast
2:53 AM 18.0 °F 6.1 °F 9.0 °F 68% 30.16 in 10.0 mi West 10.4 mph - N/A   Overcast
3:53 AM 18.0 °F 5.4 °F 10.0 °F 71% 30.14 in 10.0 mi West 11.5 mph 19.6 mph N/A   Mostly Cloudy
4:53 AM 19.0 °F 7.5 °F 10.9 °F 71% 30.13 in 10.0 mi WNW 10.4 mph 20.7 mph N/A   Overcast
5:53 AM 19.9 °F 6.7 °F 10.9 °F 68% 30.14 in 10.0 mi West 13.8 mph 19.6 mph N/A   Overcast
6:53 AM 19.9 °F 7.3 °F 10.9 °F 68% 30.14 in 10.0 mi West 12.7 mph 21.9 mph N/A   Overcast
7:53 AM 19.9 °F 8.6 °F 12.0 °F 71% 30.14 in 10.0 mi West 10.4 mph - N/A   Overcast
8:53 AM 21.0 °F 9.3 °F 12.0 °F 68% 30.16 in 10.0 mi WNW 11.5 mph 19.6 mph N/A   Overcast
9:53 AM 21.9 °F 9.8 °F 12.0 °F 66% 30.91 in 10.0 mi WNW 12.7 mph 21.9 mph N/A   Overcast
10:53 AM 21.9 °F 12.5 °F 12.0 °F 66% 30.18 in 10.0 mi WNW 8.1 mph 18.4 mph N/A   Overcast
11:53 AM 23.0 °F 11.7 °F 12.0 °F 63% 30.92 in 10.0 mi WNW 11.5 mph - 0.00 in   Overcast
12:53 PM 24.1 °F 13.7 °F 12.0 °F 60% 30.15 in 10.0 mi West 10.4 mph - N/A   Mostly Cloudy
1:53 PM 27.0 °F 16.7 °F 12.9 °F 56% 30.13 in 10.0 mi West 11.5 mph - N/A   Partly Cloudy
2:53 PM 28.0 °F 17.5 °F 12.9 °F 53% 30.12 in 10.0 mi West 12.7 mph 19.6 mph N/A   Clear
3:53 PM 28.9 °F 19.8 °F 12.9 °F 51% 30.11 in 10.0 mi WNW 10.4 mph - N/A   Clear
4:53 PM 30.0 °F 20.0 °F 12.9 °F 49% 30.13 in 10.0 mi WNW 12.7 mph 20.7 mph N/A   Clear
5:53 PM 28.9 °F 21.1 °F 14.0 °F 54% 30.14 in 10.0 mi West 8.1 mph - N/A   Clear
6:53 PM 28.0 °F 20.8 °F 14.0 °F 56% 30.12 in 10.0 mi West 6.9 mph - N/A   Clear
7:53 PM 27.0 °F 16.7 °F 14.0 °F 58% 30.13 in 10.0 mi West 11.5 mph 19.6 mph N/A   Clear
8:53 PM 26.1 °F 15.0 °F 15.1 °F 63% 30.13 in 10.0 mi West 12.7 mph - N/A   Clear
9:53 PM 26.1 °F 16.8 °F 15.1 °F 63% 30.13 in 10.0 mi West 9.2 mph 21.9 mph N/A   Clear
10:53 PM 26.1 °F 18.4 °F 16.0 °F 66% 30.13 in 10.0 mi West 6.9 mph - N/A   Clear
11:53 PM 25.0 °F 15.5 °F 16.0 °F 69% 30.12 in 10.0 mi West 9.2 mph - N/A   Clear